Terug naar catalogus

STARLINK-3823

ActiefCommunicatieVLEO
NORAD 52336·PAYLOAD·🇺🇸 United States

Gelanceerd Apr 29, 2022 vanaf Cape Canaveral Space Force Station

Loading…

Volgende Passages (komende 24 uur)

TLE

VersSource: CelesTrak SupGP

Epoch: Sep 15, 2026, 01:47 UTC

1 52336C 22045F   26258.07479167 -.00023834  00000+0 -72339-3 0  2582
2 52336  53.1597  63.3719 0001204  81.9947 358.2835 15.33552980    11

Volg STARLINK-3823 in realtime met AllMySat

Download on the App Store